This is the latest recevied weather packets stored in our database for station/object KD8YBJ. If no packets are shown the sender has not sent any weather packets the latest 10 day(s).
| Time | Temp. | Humidity | Pressure | Rain* | Wind** | Luminosity | Snow |
|---|---|---|---|---|---|---|---|
| 1778145019 | 5° C | 70% | 1013.3 hPa | 0 mm | - | 0 W/m² | - |
| 1778139621 | 6.11° C | 65% | 1013.4 hPa | 0 mm | - | 0 W/m² | - |
| 1778134223 | 6.67° C | 62% | 1013.8 hPa | 0 mm | - | 0 W/m² | - |
| 1778133020 | 7.22° C | 60% | 1013.9 hPa | 0 mm | - | 0 W/m² | - |
| 1778132419 | 7.22° C | 59% | 1013.9 hPa | 0 mm | - | 0 W/m² | - |
| 1778131226 | 7.78° C | 62% | 1014 hPa | 0 mm | - | 0 W/m² | - |
| 1778130024 | 7.78° C | 62% | 1013.8 hPa | 0 mm | - | 0 W/m² | - |
| 1778129424 | 7.78° C | 63% | 1013.7 hPa | 0 mm | - | 0 W/m² | - |
| 1778128821 | 7.78° C | 65% | 1013.7 hPa | 0 mm | - | 0 W/m² | - |
| 1778128224 | 7.78° C | 66% | 1013.6 hPa | 0 mm | - | 0 W/m² | - |
| 1778122225 | 7.22° C | 61% | 1013.9 hPa | 0 mm | - | 0 W/m² | - |
| 1778120426 | 7.78° C | 57% | 1013.7 hPa | 0 mm | - | 0 W/m² | - |
| 1778119227 | 8.33° C | 57% | 1013.6 hPa | 0 mm | - | 0 W/m² | - |
| 1778118626 | 8.33° C | 57% | 1013.6 hPa | 0 mm | - | 0 W/m² | - |
| 1778116827 | 8.33° C | 55% | 1013.5 hPa | 0 mm | - | 0 W/m² | - |
| 1778113828 | 8.89° C | 50% | 1013.2 hPa | 0 mm | - | 7 W/m² | - |
| 1778112628 | 8.89° C | 47% | 1013.1 hPa | 0 mm | - | 14 W/m² | - |
| 1778112028 | 9.44° C | 48% | 1012.9 hPa | 0 mm | - | 24 W/m² | - |
| 1778110818 | 9.44° C | 47% | 1013 hPa | 0 mm | - | 36 W/m² | - |
| 1778109617 | 9.44° C | 47% | 1013.1 hPa | 0 mm | - | 54 W/m² | - |
| 1778109017 | 9.44° C | 46% | 1013 hPa | 0 mm | - | 75 W/m² | - |
| 1778106624 | 10° C | 46% | 1013.1 hPa | 0 mm | - | 116 W/m² | - |
| 1778105420 | 10° C | 46% | 1013.1 hPa | 0 mm | - | 171 W/m² | - |
| 1778103616 | 11.11° C | 43% | 1013.2 hPa | 0 mm | - | 199 W/m² | - |
| 1778103016 | 11.67° C | 43% | 1012.9 hPa | 0 mm | - | 352 W/m² | - |
* Rain latest hour (hover to see other rain measurements)
** Current wind speed in m/s (hover to see current wind gust speed)